[[{"header":{"parameterUnit":"m.s-1","parameterCategory":1,"la1":30.2991,"la2":30.254,"lo1":-89.0895,"lo2":-89.0444,"dy":0.0017,"dx":0.0017,"nx":28,"ny":28,"refTime":"2023-09-19T09:00:00:Z","depth":0,"parameterNumber":2,"parameterNumberName":"U-component_of_WINDS"},"data":[0,0,0,0,0,0,0,0,0,0,0,0,0,0,0,0,0,0,0,0,0,0,0,0,0,0,0,0,0,0,0,0,0,0,0,0,0,0,0,0,0,0,0,0,0,0,0,0,0,0,0,0,0,0,0,0,0,0,-6.6039,-6.6041,0,-6.6229,-6.6231,-6.6233,-6.6127,-6.6121,-6.6116,-6.6111,-6.6308,-6.6318,-6.6328,0,0,0,0,0,0,0,0,0,0,0,0,0,-6.5587,-6.5596,-6.6039,-6.6041,-6.6044,-6.6229,-6.6231,-6.6234,-6.6128,-6.6121,-6.6115,-6.6109,-6.6305,-6.6317,-6.6329,0,0,0,0,0,0,0,0,0,0,0,0,0,-6.5781,-6.5599,-6.6039,-6.6013,-6.6013,-6.6228,-6.6231,-6.6235,-6.6129,-6.6121,-6.6113,-6.6106,-6.6301,-6.6315,-6.633,-6.6583,0,0,-6.6377,-6.6384,0,0,0,0,0,0,0,0,-6.577,-6.5798,-6.6014,-6.6015,-6.6015,-6.6146,-6.6144,-6.6351,-6.6131,-6.6085,-6.6111,-6.6102,-6.6261,-6.6279,-6.6332,-6.6592,-6.66,-6.6378,-6.6388,-6.6394,-6.6398,0,0,0,0,0,0,0,-6.5757,-6.5789,-6.6114,-6.6018,-6.6018,-6.5993,-6.6012,-6.6183,-6.6215,-6.6088,-6.6081,-6.6105,-6.6259,-6.6317,-6.6335,-6.6603,-6.6378,-6.6391,-6.6401,-6.6407,-6.7083,-6.7091,0,0,0,0,0,0,-6.5745,-6.5778,-6.6108,-6.612,-6.5871,-6.6008,-6.6028,-6.6112,-6.6213,-6.622,-6.6111,-6.6099,-6.6295,-6.6318,-6.6342,-6.6645,-6.6394,-6.6408,-6.6417,-6.7074,-6.7085,-6.7094,0,0,0,0,0,0,-6.5735,-6.5775,-6.61,-6.5947,-6.5987,-6.6024,-6.6118,-6.612,-6.6178,-6.623,-6.6235,-6.6165,-6.629,-6.6321,-6.6524,-6.665,-6.6415,-6.6429,-6.7064,-6.7077,-6.709,-6.7253,0,0,0,0,0,0,-6.5723,-6.5772,-6.5868,-6.595,-6.5995,-6.6279,-6.6126,-6.6129,-6.6204,-6.619,-6.6281,-6.6289,-6.6286,-6.6502,-6.6539,-6.6667,-6.6441,-6.7052,-6.707,-6.7085,-6.7236,-6.727,-6.7299,0,0,0,0,0,-6.5707,-6.5906,-6.5873,-6.5913,-6.6115,-6.6286,-6.6312,-6.6304,-6.6215,-6.6311,-6.6345,-6.6286,-6.6631,-6.6524,-6.6565,-6.6699,-6.7044,-6.7065,-6.7084,-6.7222,-6.7263,-6.7298,0,0,0,0,0,0,-6.5837,-6.5916,-6.588,-6.6112,-6.6193,-6.6268,-6.6389,-6.6347,-6.6456,-6.6438,-6.6424,-6.6446,-6.6658,-6.6699,-6.6578,-6.695,-6.6824,-6.6853,-6.6915,-6.6955,-6.6985,-6.6971,-6.6453,0,0,0,0,0,-6.5893,-6.6024,-6.6086,-6.6285,-6.6327,-6.6352,-6.6426,-6.6413,-6.6497,-6.653,-6.6579,-6.6664,-6.6791,-6.6875,-6.6995,-6.7242,-6.7262,-6.7356,-6.7387,-6.7412,-6.7437,-6.7573,-6.7616,-6.7159,-6.7159,-6.7159,0,0,-6.6009,-6.6068,-6.6152,-6.6313,-6.6374,-6.6511,-6.6381,-6.6532,-6.6634,-6.6553,-6.6748,-6.6788,-6.6881,-6.7108,-6.7211,-6.7149,-6.7568,-6.7437,-6.7457,-6.7469,-6.7598,-6.7641,-6.7679,-6.7173,-6.7171,-6.7168,0,0,-6.629,-6.6349,-6.652,-6.6585,-6.668,-6.6695,-6.6737,-6.6819,-6.6842,-6.7038,-6.6981,-6.7103,-6.7323,-6.7392,-6.7456,-6.7768,-6.7718,-6.7808,-6.7971,-6.8104,-6.814,-6.8171,-6.8284,-6.8324,-6.7833,-6.7833,-6.7834,0,-6.6422,-6.6626,-6.6614,-6.677,-6.6843,-6.6777,-6.6952,-6.7016,-6.7146,-6.7198,-6.7127,-6.7403,-6.7461,-6.7704,-6.7781,-6.7835,-6.7883,-6.7797,-6.8135,-6.8167,-6.8197,-6.8303,-6.8346,-6.7844,-6.7842,-6.7841,-6.784,0,-6.6785,-6.6928,-6.7056,-6.7183,-6.727,-6.7435,-6.7449,-6.754,-6.752,-6.7544,-6.7745,-6.7814,-6.7947,-6.8004,-6.7986,-6.8246,-6.8205,-6.8136,-6.8008,-6.8251,-6.8351,-6.8392,-6.7858,-6.7855,-6.7852,-6.7849,0,0,-6.7151,-6.7271,-6.7318,-6.7376,-6.7477,-6.7588,-6.7751,-6.7882,-6.796,-6.8053,-6.819,-6.8379,-6.8316,-6.8389,-6.8379,-6.8496,-6.874,-6.8412,-6.8414,-6.8471,-6.9033,-6.9084,-6.9131,-6.8708,-6.8716,-6.8722,-6.9025,0,-6.7439,-6.7723,-6.7718,-6.7982,-6.8114,-6.8056,-6.8198,-6.8277,-6.8304,-6.8422,-6.8452,-6.8587,-6.8493,-6.8537,-6.8649,-6.8686,-6.8853,-6.8664,-6.8837,-6.8843,-6.8814,-6.9184,-6.9238,-6.952,-6.9064,-6.907,-6.9075,0,-6.7812,-6.7918,-6.8195,-6.8279,-6.8334,-6.8462,-6.8583,-6.8696,-6.8785,-6.8797,-6.888,-6.8853,-6.902,-6.889,-6.9122,-6.8994,-6.9065,-6.9095,-6.9105,-6.912,-6.8973,-6.9209,-6.961,-6.9652,-6.9137,-6.9132,-6.9127,0,-6.8052,-6.8263,-6.8457,-6.8508,-6.8611,-6.8702,-6.875,-6.8831,-6.8911,-6.9017,-6.9069,-6.9194,-6.9262,-6.936,-6.9368,-6.9272,-6.9603,-6.9472,-6.9619,-6.9619,-6.969,-6.9685,-7.0107,-6.9737,-6.9736,-6.9735,-6.9734,0,-6.8373,-6.8545,-6.8566,-6.8685,-6.8877,-6.8871,-6.9061,-6.9101,-6.9174,-6.9301,-6.9259,-6.9379,-6.9382,-6.9506,-6.9514,-6.9706,-6.9737,-6.9753,-6.9753,-6.9756,-6.9754,-6.9802,-6.9782,-6.9746,-6.9744,-6.9742,-6.974,0,-6.8672,-6.8693,-6.89,-6.8981,-6.9006,-6.9144,-6.9214,-6.9328,-6.9353,-6.9514,-6.9552,-6.9591,-6.9735,-6.9753,-6.9921,-6.9927,-7.0158,-7.0137,-7.0127,-7.0124,-7.0269,-7.0256,-7.0737,-7.08,-7.0388,-7.0392,-7.0395,0,-6.8875,-6.9006,-6.9102,-6.9184,-6.9237,-6.9369,-6.945,-6.9451,-6.9538,-6.9652,-6.9753,-6.9893,-7.0004,-7.0237,-7.0282,-7.0411,-7.0393,-7.0553,-7.0412,-7.0413,-7.0396,-7.0388,-7.0402,-7.058,-7.0584,-7.0588,-7.0591,0,-6.9234,-6.9239,-6.9357,-6.9481,-6.958,-6.9677,-6.9769,-6.9839,-6.9852,-6.9952,-7.0098,-7.0185,-7.0358,-7.0498,-7.0626,-7.0676,-7.0638,-7.0635,-7.0676,-7.0681,-7.067,-7.0678,-7.0201,-7.0624,-7.062,-7.0618,-7.0616,-7.0615,-6.9491,-6.9606,-6.9692,-6.9826,-6.9896,-6.9983,-7.0095,-7.0135,-7.0257,-7.0396,-7.039,-7.0552,-7.0642,-7.081,-7.087,-7.0998,-7.0945,-7.1004,-7.1019,-7.1033,-7.1048,-7.065,-7.1021,-7.102,-7.1019,-7.1019,-7.1018,0,-6.9848,-6.9901,-7.0025,-7.0155,-7.0262,-7.0216,-7.0316,-7.0408,-7.0551,-7.0637,-7.0749,-7.0919,-7.1055,-7.1112,-7.1246,-7.1338,-7.1324,-7.1373,-7.1366,-7.1379,-7.1087,-7.1038,-7.1383,-7.1383,-7.1383,-7.1383,-7.1382,-7.1382,-7.0046,-7.0237,-7.0253,-7.048,-7.0532,-7.069,-7.0751,-7.0833,-7.0901,-7.1093,-7.1206,-7.1242,-7.1317,-7.1457,-7.1581,-7.1595,-7.1646,-7.1704,-7.171,-7.1436,-7.1399,-7.1364,-7.1318,-7.1716,-7.1716,-7.1991,-7.1994,-7.1995]},{"header":{"parameterUnit":"m.s-1","parameterCategory":1,"la1":30.2991,"la2":30.254,"lo1":-89.0895,"lo2":-89.0444,"dy":0.0017,"dx":0.0017,"nx":28,"ny":28,"refTime":"2023-09-19T09:00:00:Z","depth":0,"parameterNumber":3,"parameterNumberName":"V-component_of_WINDS"},"data":[0,0,0,0,0,0,0,0,0,0,0,0,0,0,0,0,0,0,0,0,0,0,0,0,0,0,0,0,0,0,0,0,0,0,0,0,0,0,0,0,0,0,0,0,0,0,0,0,0,0,0,0,0,0,0,0,0,0,-3.5636,-3.5636,0,-3.5639,-3.5639,-3.5639,-3.555,-3.5548,-3.5545,-3.5543,-3.5547,-3.5549,-3.5551,0,0,0,0,0,0,0,0,0,0,0,0,0,-3.5552,-3.5554,-3.5636,-3.5636,-3.5636,-3.5639,-3.5639,-3.5639,-3.555,-3.5547,-3.5545,-3.5542,-3.5546,-3.5549,-3.5551,0,0,0,0,0,0,0,0,0,0,0,0,0,-3.5575,-3.5555,-3.5636,-3.5592,-3.5588,-3.5639,-3.5639,-3.5639,-3.5551,-3.5547,-3.5544,-3.554,-3.5545,-3.5548,-3.5552,-3.5645,0,0,-3.5562,-3.5564,0,0,0,0,0,0,0,0,-3.5574,-3.5578,-3.5598,-3.5595,-3.5591,-3.559,-3.561,-3.5641,-3.5552,-3.5565,-3.5543,-3.5539,-3.5564,-3.5566,-3.5574,-3.5645,-3.5645,-3.5563,-3.5565,-3.5566,-3.5567,0,0,0,0,0,0,0,-3.5572,-3.5578,-3.5637,-3.5599,-3.5594,-3.5572,-3.5571,-3.5616,-3.5585,-3.5564,-3.5557,-3.5559,-3.5561,-3.5571,-3.5574,-3.5645,-3.5563,-3.5566,-3.5568,-3.5569,-3.579,-3.5794,0,0,0,0,0,0,-3.5577,-3.5577,-3.5637,-3.5637,-3.5573,-3.5576,-3.5575,-3.5594,-3.5584,-3.5579,-3.5562,-3.5555,-3.5567,-3.557,-3.5573,-3.5681,-3.5566,-3.557,-3.5572,-3.5787,-3.5791,-3.5795,0,0,0,0,0,0,-3.5575,-3.5583,-3.5637,-3.5605,-3.561,-3.5581,-3.5603,-3.5596,-3.5606,-3.5582,-3.5576,-3.5578,-3.5564,-3.5569,-3.5627,-3.568,-3.5571,-3.5574,-3.5782,-3.5788,-3.5793,-3.5897,0,0,0,0,0,0,-3.5573,-3.5583,-3.5619,-3.5607,-3.5612,-3.5691,-3.5606,-3.5599,-3.5612,-3.5602,-3.5596,-3.5591,-3.5562,-3.5623,-3.5631,-3.5683,-3.5577,-3.5777,-3.5785,-3.5791,-3.5889,-3.5906,-3.592,0,0,0,0,0,-3.5571,-3.5648,-3.5621,-3.5629,-3.5656,-3.5694,-3.5698,-3.5662,-3.5616,-3.5652,-3.5636,-3.5591,-3.5672,-3.5629,-3.5638,-3.5692,-3.5774,-3.5783,-3.5791,-3.5882,-3.5902,-3.592,0,0,0,0,0,0,-3.5668,-3.5646,-3.5615,-3.5692,-3.5695,-3.5679,-3.5723,-3.5685,-3.5702,-3.5693,-3.5648,-3.5647,-3.5713,-3.5708,-3.566,-3.578,-3.5715,-3.5726,-3.5781,-3.5801,-3.5816,-3.5816,-3.558,0,0,0,0,0,-3.5698,-3.5731,-3.571,-3.5779,-3.5783,-3.5753,-3.5768,-3.574,-3.5742,-3.5744,-3.5733,-3.5737,-3.5763,-3.5781,-3.5804,-3.5887,-3.5884,-3.5928,-3.5943,-3.5956,-3.5966,-3.6009,-3.6028,-3.5823,-3.5823,-3.5823,0,0,-3.5762,-3.5753,-3.5777,-3.5799,-3.5798,-3.5833,-3.5755,-3.5795,-3.582,-3.575,-3.5804,-3.5796,-3.5798,-3.5869,-3.59,-3.5867,-3.6022,-3.5967,-3.5978,-3.5981,-3.602,-3.6039,-3.6057,-3.5829,-3.5828,-3.5827,0,0,-3.5894,-3.5892,-3.5948,-3.5949,-3.5949,-3.5928,-3.5942,-3.5931,-3.5923,-3.5977,-3.5924,-3.5953,-3.5999,-3.6002,-3.601,-3.6141,-3.61,-3.6149,-3.6231,-3.6273,-3.6289,-3.6303,-3.635,-3.6367,-3.6159,-3.6159,-3.6159,0,-3.5973,-3.6024,-3.5982,-3.6026,-3.6037,-3.5973,-3.6029,-3.6032,-3.604,-3.6049,-3.6011,-3.6067,-3.6063,-3.6134,-3.6165,-3.6174,-3.6188,-3.6151,-3.629,-3.6304,-3.6316,-3.6361,-3.6378,-3.6165,-3.6165,-3.6164,-3.6163,0,-3.612,-3.6155,-3.6201,-3.6209,-3.6225,-3.6275,-3.6241,-3.6261,-3.6231,-3.6214,-3.6269,-3.6262,-3.6282,-3.6296,-3.6268,-3.6362,-3.6342,-3.6298,-3.6232,-3.6343,-3.6383,-3.64,-3.6174,-3.6172,-3.617,-3.6168,0,0,-3.6317,-3.63,-3.6317,-3.632,-3.6314,-3.634,-3.6387,-3.6405,-3.6423,-3.643,-3.6468,-3.6507,-3.6466,-3.6475,-3.6445,-3.6482,-3.6586,-3.6434,-3.6433,-3.6463,-3.669,-3.6723,-3.6744,-3.6558,-3.6561,-3.6564,-3.669,0,-3.6446,-3.6524,-3.6487,-3.657,-3.6602,-3.654,-3.658,-3.6581,-3.6565,-3.659,-3.6572,-3.6601,-3.6545,-3.6549,-3.6583,-3.6567,-3.6631,-3.6557,-3.6593,-3.6595,-3.6596,-3.6765,-3.6801,-3.692,-3.6705,-3.6708,-3.671,0,-3.6608,-3.662,-3.6706,-3.6692,-3.6704,-3.6741,-3.6754,-3.6778,-3.6777,-3.6763,-3.6772,-3.6733,-3.6777,-3.671,-3.677,-3.672,-3.6733,-3.6727,-3.673,-3.6733,-3.666,-3.6773,-3.6957,-3.6976,-3.6734,-3.6732,-3.6731,0,-3.6743,-3.6781,-3.6836,-3.684,-3.6826,-3.6853,-3.6849,-3.6844,-3.6857,-3.6868,-3.6876,-3.6892,-3.6902,-3.6915,-3.6882,-3.6837,-3.6946,-3.6877,-3.6936,-3.6937,-3.6963,-3.6963,-3.7153,-3.697,-3.697,-3.697,-3.6969,0,-3.6892,-3.6946,-3.6897,-3.6931,-3.699,-3.6946,-3.7006,-3.6995,-3.699,-3.7021,-3.6969,-3.6999,-3.6953,-3.6978,-3.6952,-3.7006,-3.701,-3.7,-3.6993,-3.7006,-3.7007,-3.7014,-3.7005,-3.6974,-3.6973,-3.6972,-3.6971,0,-3.7054,-3.7023,-3.7079,-3.706,-3.7056,-3.7101,-3.7084,-3.7115,-3.7095,-3.7135,-3.7141,-3.711,-3.7137,-3.7105,-3.7129,-3.7112,-3.7184,-3.7164,-3.7185,-3.7179,-3.7241,-3.7236,-3.7443,-3.7468,-3.7269,-3.7271,-3.7272,0,-3.7151,-3.7192,-3.7176,-3.7193,-3.7191,-3.7218,-3.723,-3.7188,-3.7203,-3.7203,-3.7234,-3.7256,-3.7272,-3.7318,-3.7298,-3.7316,-3.7296,-3.7368,-3.7299,-3.731,-3.7298,-3.7297,-3.73,-3.7383,-3.7385,-3.7387,-3.7388,0,-3.7328,-3.7309,-3.7329,-3.7343,-3.7359,-3.7368,-3.7374,-3.739,-3.7346,-3.7365,-3.7391,-3.7404,-3.7427,-3.745,-3.7462,-3.7457,-3.7416,-3.741,-3.7425,-3.7439,-3.7449,-3.7445,-3.7224,-3.7406,-3.7404,-3.7403,-3.7402,-3.7401,-3.7461,-3.7493,-3.7487,-3.751,-3.7509,-3.7515,-3.7542,-3.7525,-3.7546,-3.7561,-3.7535,-3.7568,-3.7564,-3.7576,-3.7575,-3.76,-3.757,-3.7591,-3.7597,-3.7603,-3.7612,-3.7444,-3.7602,-3.7602,-3.7601,-3.7601,-3.76,0,-3.7635,-3.7627,-3.7648,-3.7656,-3.7675,-3.7632,-3.7635,-3.7653,-3.7683,-3.7682,-3.7698,-3.7728,-3.7749,-3.7729,-3.7747,-3.7771,-3.7752,-3.7777,-3.7775,-3.7775,-3.7639,-3.7624,-3.7792,-3.7792,-3.7791,-3.7791,-3.7791,-3.7791,-3.7727,-3.778,-3.7761,-3.7812,-3.7803,-3.7835,-3.784,-3.7845,-3.7844,-3.7879,-3.7896,-3.7883,-3.7874,-3.789,-3.7908,-3.7901,-3.7911,-3.7942,-3.793,-3.7803,-3.7784,-3.7767,-3.7753,-3.7944,-3.7945,-3.8064,-3.8065,-3.8066]}]]